FW3145 Weather Reports


Display with metric or nautical units.
time (UTC)temp
F
wind
direction
speed
MPH
gust
MPH
rain 1hr
in
rain 24hr
in
rain mn
in
humidity
%
barometer
mb
20260903011510 68 355 0.0 0.0 0.00 0.00 0.00 80 1014.6
20260903010002 69 355 0.0 0.0 0.00 0.00 0.00 80 1014.7
20260903004601 69 355 0.0 0.0 0.00 0.00 0.00 80 1014.8
20260903003104 69 355 0.0 0.0 0.00 0.00 0.00 80 1014.9
20260903001600 70 355 0.0 0.0 0.00 0.00 0.00 79 1015.0
20260903000056 70 355 0.0 0.0 0.00 0.00 0.00 79 1014.9
20260902234555 71 355 0.0 0.0 0.00 0.00 0.00 79 1015.0
20260902233051 71 355 0.0 0.0 0.00 0.00 0.00 78 1015.0
20260902231606 72 355 0.0 0.0 0.00 0.00 0.00 77 1015.0
20260902230047 72 355 0.0 0.0 0.00 0.00 0.00 77 1014.9
20260902224557 73 16 0.0 0.0 0.00 0.00 0.00 77 1014.9
20260902223051 74 28 0.0 0.0 0.00 0.00 0.00 78 1015.0
20260902221554 74 27 0.0 0.0 0.00 0.00 0.00 76 1015.0
20260902220053 74 28 0.0 0.0 0.00 0.00 0.00 75 1015.0
20260902214539 74 28 0.0 0.0 0.00 0.00 0.00 75 1015.1
20260902213040 73 5 0.0 0.0 0.00 0.00 0.00 74 1015.1
20260902211538 72 26 0.0 0.0 0.00 0.00 0.00 74 1015.0
20260902210045 72 342 0.0 0.0 0.00 0.00 0.00 72 1015.0
20260902204542 72 334 0.0 0.0 0.00 0.00 0.00 71 1015.0
20260902203042 72 334 0.0 0.0 0.00 0.00 0.00 71 1015.0
20260902201547 73 349 0.0 0.0 0.00 0.00 0.00 70 1015.0
20260902200035 73 11 0.0 0.0 0.00 0.00 0.00 69 1015.0
20260902194536 74 15 0.0 0.0 0.00 0.00 0.00 68 1015.1
20260902193042 74 20 0.0 0.0 0.00 0.00 0.00 66 1014.9
20260902191534 75 328 0.0 0.0 0.00 0.00 0.00 66 1014.8
20260902190033 75 276 0.0 0.0 0.00 0.00 0.00 64 1014.8
20260902184532 77 275 0.0 0.0 0.00 0.00 0.00 62 1014.6
20260902183034 77 267 0.0 0.0 0.00 0.00 0.00 59 1014.7
20260902181531 77 338 0.0 0.0 0.00 0.00 0.00 60 1014.4
20260902180031 78 344 0.0 0.0 0.00 0.00 0.00 59 1014.3
20260902174530 80 326 0.0 0.0 0.00 0.00 0.00 57 1014.1
20260902173029 82 326 0.0 0.0 0.00 0.00 0.00 52 1014.1
20260902171531 83 313 0.0 0.0 0.00 0.00 0.00 50 1014.2
20260902170028 84 303 0.0 0.0 0.00 0.00 0.00 50 1014.0
20260902164534 85 321 0.0 0.0 0.00 0.00 0.00 50 1014.0
20260902163034 86 257 0.0 0.0 0.00 0.00 0.00 50 1014.0
20260902161527 86 288 0.0 0.0 0.00 0.00 0.00 50 1014.0
20260902160026 87 269 0.0 0.0 0.00 0.00 0.00 51 1014.0
20260902154529 88 263 0.0 0.0 0.00 0.00 0.00 48 1014.1
20260902153042 89 267 0.0 0.0 0.00 0.00 0.00 48 1013.9
20260902151524 89 282 0.0 0.0 0.00 0.00 0.00 46 1013.9
20260902150024 90 304 0.0 0.0 0.00 0.00 0.00 48 1013.9
20260902144523 90 277 0.0 0.0 0.00 0.00 0.00 46 1013.9
20260902143022 91 300 0.0 0.0 0.00 0.00 0.00 46 1013.9
20260902141521 92 269 0.0 0.0 0.00 0.00 0.00 43 1013.9
20260902140020 92 244 0.0 0.0 0.00 0.00 0.00 42 1014.0
20260902134618 92 221 0.0 0.0 0.00 0.00 0.00 39 1014.1
20260902133016 93 255 0.0 0.0 0.00 0.00 0.00 40 1014.3
20260902131532 92 288 0.0 0.0 0.00 0.00 0.00 46 1014.4
20260902130012 91 227 0.0 0.0 0.00 0.00 0.00 49 1014.5
20260902124511 90 235 0.0 0.0 0.00 0.00 0.00 48 1014.7
20260902123008 91 229 0.0 0.0 0.00 0.00 0.00 42 1014.8
20260902121507 92 254 0.0 0.0 0.00 0.00 0.00 46 1014.8
20260902120004 91 288 0.0 0.0 0.00 0.00 0.00 49 1015.0
20260902114507 91 313 0.0 0.0 0.00 0.00 0.00 51 1015.1
20260902113105 90 232 0.0 0.0 0.00 0.00 0.00 51 1015.2
20260902111605 90 264 0.0 0.0 0.00 0.00 0.00 52 1015.5
20260902110057 89 294 0.0 0.0 0.00 0.00 0.00 52 1015.5
20260902104606 88 248 0.0 0.0 0.00 0.00 0.00 53 1015.7
20260902103050 87 150 0.0 0.0 0.00 0.00 0.00 54 1015.8
20260902101547 87 171 0.0 0.0 0.00 0.00 0.00 59 1015.9
20260902100047 86 161 0.0 0.0 0.00 0.00 0.00 59 1016.1
20260902094543 85 224 0.0 0.0 0.00 0.00 0.00 58 1016.3
20260902093041 85 157 0.0 0.0 0.00 0.00 0.00 57 1016.4
20260902091539 85 178 0.0 0.0 0.00 0.00 0.00 64 1016.4
20260902090037 84 138 0.0 0.0 0.00 0.00 0.00 64 1016.5
20260902084533 84 119 0.0 0.0 0.00 0.00 0.00 64 1016.4
20260902083029 83 169 0.0 0.0 0.00 0.00 0.00 62 1016.4
20260902081525 81 173 0.0 0.0 0.00 0.00 0.00 63 1016.2
20260902080021 80 143 0.0 0.0 0.00 0.00 0.00 65 1016.0
20260902074520 79 143 0.0 0.0 0.00 0.00 0.00 67 1016.0
20260902073017 78 163 0.0 0.0 0.00 0.00 0.00 73 1016.0
20260902071509 77 142 0.0 0.0 0.00 0.00 0.00 73 1016.0
20260902070006 75 157 0.0 0.0 0.00 0.00 0.00 76 1016.0
20260902064600 75 143 0.0 0.0 0.00 0.00 0.00 77 1016.1
20260902063056 74 142 0.0 0.0 0.00 0.00 0.00 78 1016.1
20260902061601 74 91 0.0 0.0 0.00 0.00 0.00 79 1016.0
20260902060056 72 90 0.0 0.0 0.00 0.00 0.00 80 1016.0
20260902054605 70 62 0.0 0.0 0.00 0.00 0.00 80 1016.0
20260902053050 69 63 0.0 0.0 0.00 0.00 0.00 78 1016.0
20260902051537 67 62 0.0 0.0 0.00 0.00 0.00 79 1015.9
20260902050032 67 62 0.0 0.0 0.00 0.00 0.00 80 1015.7
20260902044535 67 62 0.0 0.0 0.00 0.00 0.00 80 1015.6
20260902043027 67 62 0.0 0.0 0.00 0.00 0.00 80 1015.6
20260902041528 67 62 0.0 0.0 0.00 0.00 0.00 80 1015.4
20260902040024 67 62 0.0 0.0 0.00 0.00 0.00 80 1015.3
20260902034523 68 62 0.0 0.0 0.00 0.00 0.00 80 1015.2
20260902033022 68 63 0.0 0.0 0.00 0.00 0.00 80 1015.1
20260902031521 68 63 0.0 0.0 0.00 0.00 0.00 80 1015.2
20260902030019 68 63 0.0 0.0 0.00 0.00 0.00 80 1015.3
20260902024517 68 63 0.0 0.0 0.00 0.00 0.00 80 1015.3
20260902023016 69 63 0.0 0.0 0.00 0.00 0.00 80 1015.3
20260902021514 69 87 0.0 0.0 0.00 0.00 0.00 80 1015.4
20260902020013 70 87 0.0 0.0 0.00 0.00 0.00 80 1015.2
20260902014511 70 88 0.0 0.0 0.00 0.00 0.00 80 1015.1
20260902013010 70 88 0.0 0.0 0.00 0.00 0.00 79 1015.2